[[{"header":{"parameterUnit":"m.s-1","parameterCategory":1,"la1":30.2991,"la2":30.254,"lo1":-89.0895,"lo2":-89.0444,"dy":0.0017,"dx":0.0017,"nx":28,"ny":28,"refTime":"2024-07-27T03:00:00:Z","depth":0,"parameterNumber":2,"parameterNumberName":"U-component_of_WINDS"},"data":[0,0,0,0,0,0,0,0,0,0,0,0,0,0,0,0,0,0,0,0,0,0,0,0,0,0,0,0,0,0,0,0,0,0,0,0,0,0,0,0,0,0,0,0,0,0,0,0,0,0,0,0,0,0,0,0,0,0,-1.0526,-1.0526,0,-1.0506,-1.0505,-1.0505,-1.0488,-1.0488,-1.0488,-1.0487,-1.0467,-1.0466,-1.0466,0,0,0,0,0,0,0,0,0,0,0,0,0,-1.0551,-1.0551,-1.0526,-1.0526,-1.0526,-1.0506,-1.0505,-1.0505,-1.0488,-1.0488,-1.0488,-1.0487,-1.0467,-1.0466,-1.0466,0,0,0,0,0,0,0,0,0,0,0,0,0,-1.0536,-1.0551,-1.0526,-1.0515,-1.0513,-1.0506,-1.0505,-1.0505,-1.0488,-1.0488,-1.0487,-1.0487,-1.0467,-1.0466,-1.0466,-1.0468,0,0,-1.0464,-1.0464,0,0,0,0,0,0,0,0,-1.0537,-1.0536,-1.0517,-1.0515,-1.0514,-1.0499,-1.0507,-1.0493,-1.0488,-1.0498,-1.0487,-1.0487,-1.0478,-1.0476,-1.0473,-1.0467,-1.0466,-1.0464,-1.0464,-1.0463,-1.0463,0,0,0,0,0,0,0,-1.0538,-1.0536,-1.0518,-1.0516,-1.0515,-1.0511,-1.0508,-1.0504,-1.049,-1.0497,-1.0496,-1.0493,-1.0477,-1.0474,-1.0472,-1.0466,-1.0464,-1.0464,-1.0463,-1.0463,-1.0462,-1.0462,0,0,0,0,0,0,-1.0541,-1.0537,-1.0519,-1.0517,-1.0525,-1.0511,-1.0508,-1.0504,-1.049,-1.0487,-1.0494,-1.0493,-1.0475,-1.0473,-1.0472,-1.0474,-1.0464,-1.0463,-1.0463,-1.0462,-1.0462,-1.0462,0,0,0,0,0,0,-1.0542,-1.054,-1.052,-1.0527,-1.0524,-1.051,-1.0506,-1.0504,-1.0501,-1.0487,-1.0485,-1.0493,-1.0474,-1.0472,-1.0469,-1.0473,-1.0463,-1.0462,-1.0461,-1.0462,-1.0462,-1.0478,0,0,0,0,0,0,-1.0542,-1.054,-1.054,-1.0527,-1.0524,-1.0517,-1.0507,-1.0504,-1.05,-1.0498,-1.0486,-1.0483,-1.0474,-1.047,-1.0469,-1.0472,-1.0462,-1.0461,-1.0462,-1.0462,-1.0477,-1.0479,-1.0481,0,0,0,0,0,-1.0543,-1.0545,-1.054,-1.0538,-1.0524,-1.0518,-1.0516,-1.0505,-1.05,-1.0501,-1.0492,-1.0484,-1.0473,-1.047,-1.0468,-1.0471,-1.0461,-1.0461,-1.0462,-1.0477,-1.0479,-1.0481,0,0,0,0,0,0,-1.0559,-1.0543,-1.0538,-1.0535,-1.0528,-1.0515,-1.0515,-1.0508,-1.0501,-1.05,-1.0487,-1.0485,-1.0483,-1.0477,-1.0474,-1.0473,-1.0466,-1.0466,-1.0477,-1.0479,-1.0481,-1.0483,-1.0461,0,0,0,0,0,-1.0562,-1.0558,-1.0545,-1.0544,-1.0541,-1.0529,-1.0525,-1.0518,-1.051,-1.0506,-1.0497,-1.049,-1.0485,-1.0482,-1.0476,-1.0477,-1.0474,-1.0478,-1.048,-1.0481,-1.0482,-1.0482,-1.0484,-1.0465,-1.0465,-1.0465,0,0,-1.0569,-1.056,-1.0558,-1.0547,-1.054,-1.0537,-1.0526,-1.0522,-1.052,-1.0506,-1.0502,-1.0496,-1.0487,-1.0486,-1.0485,-1.048,-1.0486,-1.0482,-1.0483,-1.0483,-1.0483,-1.0485,-1.0487,-1.0465,-1.0465,-1.0465,0,0,-1.0579,-1.0571,-1.057,-1.0564,-1.0554,-1.0547,-1.0546,-1.0534,-1.053,-1.0526,-1.0516,-1.0513,-1.0504,-1.0498,-1.0494,-1.0504,-1.0496,-1.0502,-1.0511,-1.0512,-1.0513,-1.0515,-1.0519,-1.052,-1.0503,-1.0503,-1.0503,0,-1.0588,-1.0582,-1.0571,-1.0568,-1.0564,-1.0552,-1.0551,-1.0546,-1.0535,-1.0532,-1.0528,-1.0517,-1.051,-1.0508,-1.051,-1.0507,-1.0507,-1.0503,-1.0514,-1.0515,-1.0516,-1.052,-1.0521,-1.0504,-1.0503,-1.0503,-1.0503,0,-1.0595,-1.0591,-1.0591,-1.0581,-1.0577,-1.0575,-1.0564,-1.0562,-1.0555,-1.0548,-1.0545,-1.0536,-1.0529,-1.0528,-1.0521,-1.0525,-1.0523,-1.0516,-1.0508,-1.0519,-1.0522,-1.0524,-1.0505,-1.0505,-1.0504,-1.0504,0,0,-1.0613,-1.0598,-1.0598,-1.0594,-1.0583,-1.058,-1.0578,-1.0571,-1.057,-1.0563,-1.0561,-1.0555,-1.0549,-1.0545,-1.0537,-1.0538,-1.0547,-1.0531,-1.0531,-1.0535,-1.0551,-1.0557,-1.0558,-1.0542,-1.0542,-1.0542,-1.0552,0,-1.0622,-1.0618,-1.0608,-1.0607,-1.0604,-1.0593,-1.0591,-1.0585,-1.0578,-1.0575,-1.0567,-1.0563,-1.0556,-1.0553,-1.0553,-1.0545,-1.055,-1.0545,-1.0541,-1.054,-1.0543,-1.056,-1.0565,-1.0575,-1.0553,-1.0554,-1.0554,0,-1.0631,-1.0625,-1.0624,-1.0614,-1.0613,-1.0611,-1.0605,-1.0602,-1.0594,-1.059,-1.0585,-1.0577,-1.0575,-1.0568,-1.0566,-1.0562,-1.056,-1.0556,-1.0556,-1.0556,-1.0548,-1.056,-1.0578,-1.058,-1.0555,-1.0555,-1.0555,0,-1.0646,-1.0638,-1.0636,-1.0633,-1.0621,-1.0621,-1.0616,-1.0608,-1.0605,-1.0599,-1.0598,-1.0592,-1.0589,-1.0585,-1.0576,-1.0571,-1.0575,-1.0567,-1.0571,-1.0572,-1.0573,-1.0573,-1.0591,-1.0571,-1.0571,-1.0571,-1.0571,0,-1.0656,-1.0656,-1.0643,-1.0642,-1.0642,-1.0631,-1.0631,-1.0625,-1.0619,-1.0617,-1.0607,-1.0605,-1.0593,-1.059,-1.0583,-1.0583,-1.0581,-1.0578,-1.0576,-1.0579,-1.058,-1.0578,-1.0577,-1.0571,-1.0571,-1.0571,-1.0571,0,-1.0673,-1.0663,-1.0661,-1.065,-1.0648,-1.0648,-1.0639,-1.0638,-1.0631,-1.0629,-1.0628,-1.0618,-1.0614,-1.0605,-1.0598,-1.0594,-1.0595,-1.0592,-1.0598,-1.0597,-1.0602,-1.0602,-1.062,-1.0622,-1.0601,-1.0601,-1.0601,0,-1.068,-1.068,-1.0669,-1.0667,-1.0663,-1.066,-1.0657,-1.0647,-1.0644,-1.0636,-1.0637,-1.0632,-1.0628,-1.0623,-1.0615,-1.0611,-1.0607,-1.0614,-1.0606,-1.061,-1.0608,-1.0608,-1.0608,-1.0615,-1.0616,-1.0616,-1.0616,0,-1.0695,-1.0691,-1.0687,-1.0682,-1.0678,-1.0674,-1.0669,-1.0668,-1.0656,-1.0654,-1.065,-1.0647,-1.0642,-1.0638,-1.0632,-1.0628,-1.062,-1.0619,-1.062,-1.0623,-1.0627,-1.0625,-1.0603,-1.0618,-1.0618,-1.0618,-1.0618,-1.0618,-1.0707,-1.0707,-1.07,-1.0696,-1.0691,-1.0687,-1.0686,-1.0679,-1.0676,-1.067,-1.0665,-1.0662,-1.0655,-1.0647,-1.0643,-1.0641,-1.0637,-1.0638,-1.0639,-1.0639,-1.0641,-1.0627,-1.064,-1.064,-1.064,-1.064,-1.064,0,-1.0722,-1.0717,-1.0714,-1.0707,-1.0705,-1.0698,-1.0692,-1.0691,-1.0688,-1.0683,-1.0679,-1.0676,-1.0672,-1.0664,-1.066,-1.066,-1.0657,-1.0659,-1.0659,-1.0659,-1.0644,-1.0644,-1.0662,-1.0662,-1.0662,-1.0662,-1.0662,-1.0662,-1.0729,-1.0729,-1.0724,-1.0721,-1.0716,-1.0713,-1.0711,-1.0707,-1.0703,-1.0699,-1.0696,-1.0691,-1.0685,-1.068,-1.0677,-1.0675,-1.0674,-1.0678,-1.0675,-1.0662,-1.0659,-1.0657,-1.0657,-1.0678,-1.0678,-1.0689,-1.0689,-1.0689]},{"header":{"parameterUnit":"m.s-1","parameterCategory":1,"la1":30.2991,"la2":30.254,"lo1":-89.0895,"lo2":-89.0444,"dy":0.0017,"dx":0.0017,"nx":28,"ny":28,"refTime":"2024-07-27T03:00:00:Z","depth":0,"parameterNumber":3,"parameterNumberName":"V-component_of_WINDS"},"data":[0,0,0,0,0,0,0,0,0,0,0,0,0,0,0,0,0,0,0,0,0,0,0,0,0,0,0,0,0,0,0,0,0,0,0,0,0,0,0,0,0,0,0,0,0,0,0,0,0,0,0,0,0,0,0,0,0,0,3.6109,3.6109,0,3.6126,3.6126,3.6126,3.6131,3.6131,3.613,3.613,3.6147,3.6147,3.6148,0,0,0,0,0,0,0,0,0,0,0,0,0,3.6078,3.6079,3.6109,3.6109,3.6109,3.6126,3.6126,3.6126,3.6131,3.6131,3.613,3.613,3.6146,3.6147,3.6148,0,0,0,0,0,0,0,0,0,0,0,0,0,3.6093,3.6079,3.6109,3.6113,3.6114,3.6126,3.6126,3.6126,3.6131,3.6131,3.613,3.613,3.6146,3.6147,3.6148,3.6156,0,0,3.615,3.615,0,0,0,0,0,0,0,0,3.6092,3.6094,3.6112,3.6113,3.6114,3.6126,3.6121,3.6136,3.6131,3.6124,3.613,3.613,3.614,3.6141,3.6145,3.6156,3.6157,3.615,3.6151,3.6151,3.6151,0,0,0,0,0,0,0,3.6091,3.6093,3.6115,3.6113,3.6113,3.6114,3.6116,3.6124,3.6133,3.6125,3.6125,3.6127,3.614,3.6144,3.6145,3.6157,3.615,3.6151,3.6151,3.6152,3.6177,3.6178,0,0,0,0,0,0,3.6089,3.6092,3.6115,3.6116,3.6102,3.6115,3.6117,3.6122,3.6133,3.6134,3.6127,3.6127,3.6143,3.6144,3.6146,3.6156,3.6151,3.6152,3.6152,3.6177,3.6178,3.6178,0,0,0,0,0,0,3.6089,3.6091,3.6114,3.6104,3.6107,3.6116,3.6121,3.6123,3.6126,3.6135,3.6136,3.613,3.6142,3.6144,3.6153,3.6157,3.6152,3.6153,3.6177,3.6177,3.6178,3.6177,0,0,0,0,0,0,3.6088,3.6091,3.6094,3.6104,3.6108,3.6122,3.6122,3.6123,3.6128,3.6128,3.6137,3.6138,3.6142,3.6152,3.6154,3.6158,3.6153,3.6177,3.6177,3.6178,3.6177,3.6177,3.6178,0,0,0,0,0,3.6087,3.6093,3.6095,3.6097,3.6112,3.6122,3.6124,3.6129,3.6128,3.6131,3.6137,3.6138,3.6156,3.6153,3.6155,3.6159,3.6177,3.6177,3.6178,3.6177,3.6177,3.6178,0,0,0,0,0,0,3.6082,3.6094,3.6096,3.6106,3.6113,3.6123,3.6127,3.6129,3.6137,3.6136,3.6142,3.6144,3.6153,3.6157,3.6153,3.6168,3.6166,3.6167,3.6165,3.6165,3.6166,3.6165,3.6154,0,0,0,0,0,3.6083,3.609,3.61,3.6108,3.6111,3.6119,3.6123,3.6127,3.6134,3.6137,3.6143,3.6149,3.6157,3.6161,3.6168,3.6178,3.618,3.6181,3.6182,3.6182,3.6183,3.6188,3.6189,3.6179,3.6179,3.6179,0,0,3.6083,3.609,3.6095,3.6107,3.6113,3.6121,3.6121,3.6129,3.6134,3.6138,3.6147,3.6152,3.6159,3.6169,3.6173,3.6173,3.6186,3.6183,3.6183,3.6183,3.6189,3.619,3.6191,3.618,3.618,3.618,0,0,3.6088,3.6094,3.6101,3.6108,3.6117,3.6122,3.6124,3.6134,3.6137,3.6147,3.615,3.6156,3.6168,3.6174,3.6178,3.6186,3.6188,3.6189,3.6191,3.6196,3.6197,3.6198,3.6201,3.6202,3.6189,3.6189,3.6189,0,3.6087,3.6099,3.6105,3.6113,3.6118,3.6123,3.613,3.6136,3.6146,3.615,3.6149,3.6165,3.6171,3.6182,3.6184,3.6187,3.619,3.6187,3.6197,3.6197,3.6198,3.6201,3.6202,3.6189,3.6189,3.6189,3.6189,0,3.6097,3.6105,3.611,3.6122,3.6128,3.6135,3.6142,3.6148,3.6151,3.6156,3.6166,3.6173,3.6182,3.6184,3.6187,3.6196,3.6195,3.6196,3.6194,3.6199,3.6202,3.6203,3.6189,3.6189,3.6189,3.6189,0,0,3.6099,3.6114,3.6116,3.6122,3.6133,3.6139,3.6147,3.6157,3.6161,3.6169,3.6175,3.6186,3.6187,3.6192,3.6195,3.62,3.6207,3.62,3.62,3.6201,3.6217,3.6217,3.6218,3.6208,3.6208,3.6208,3.6217,0,3.6105,3.612,3.6126,3.6138,3.6146,3.6151,3.6158,3.6165,3.617,3.6178,3.6183,3.6191,3.6191,3.6194,3.6199,3.6205,3.621,3.6204,3.6214,3.6214,3.6212,3.622,3.6219,3.6227,3.6218,3.6218,3.6218,0,3.6114,3.6123,3.6136,3.6147,3.615,3.6156,3.6166,3.6173,3.6182,3.6185,3.6191,3.6195,3.6203,3.6201,3.6213,3.6209,3.6214,3.6217,3.6218,3.6219,3.6216,3.6221,3.6229,3.623,3.622,3.622,3.622,0,3.6114,3.6129,3.6139,3.6144,3.6157,3.6161,3.6166,3.6175,3.6181,3.6189,3.6193,3.6201,3.6206,3.6213,3.6218,3.6217,3.623,3.6228,3.6233,3.6233,3.6235,3.6235,3.6244,3.6238,3.6238,3.6238,3.6238,0,3.612,3.6128,3.6139,3.6146,3.6155,3.6162,3.617,3.6176,3.6184,3.6191,3.6195,3.6202,3.6209,3.6217,3.6221,3.623,3.6232,3.6235,3.6236,3.6235,3.6235,3.6238,3.6237,3.6238,3.6238,3.6238,3.6238,0,3.6122,3.613,3.6141,3.6153,3.6156,3.6162,3.6172,3.6178,3.6184,3.6193,3.6196,3.6204,3.6213,3.622,3.6231,3.6234,3.6244,3.6245,3.6242,3.6242,3.6246,3.6246,3.6258,3.626,3.6252,3.6252,3.6252,0,3.6125,3.6132,3.6145,3.615,3.6156,3.6165,3.6171,3.6178,3.6184,3.6195,3.62,3.6209,3.6217,3.6232,3.6239,3.6248,3.6249,3.6253,3.625,3.6249,3.6249,3.6249,3.625,3.6253,3.6253,3.6253,3.6253,0,3.6131,3.6135,3.6144,3.6154,3.6162,3.617,3.6178,3.6182,3.6191,3.6198,3.6208,3.6214,3.6226,3.6236,3.6245,3.6251,3.6253,3.6254,3.6256,3.6254,3.6252,3.6253,3.6243,3.6254,3.6253,3.6253,3.6253,3.6253,3.6134,3.614,3.615,3.616,3.6168,3.6176,3.6182,3.6189,3.6198,3.6209,3.6213,3.6223,3.6232,3.6245,3.6251,3.6259,3.6259,3.6261,3.6261,3.6262,3.6262,3.6251,3.626,3.626,3.626,3.626,3.626,0,3.614,3.6147,3.6156,3.6168,3.6176,3.6179,3.6189,3.6195,3.6204,3.6213,3.6221,3.6232,3.6242,3.625,3.626,3.6264,3.6266,3.6267,3.6266,3.6268,3.6261,3.6259,3.6265,3.6265,3.6265,3.6265,3.6265,3.6265,3.6144,3.6155,3.616,3.6174,3.6181,3.6192,3.6197,3.6205,3.6212,3.6225,3.6233,3.6239,3.6247,3.6258,3.6266,3.6269,3.6272,3.6273,3.6275,3.6269,3.6268,3.6268,3.6266,3.6273,3.6273,3.6281,3.6281,3.6281]}]]